DW5310 Weather Reports


time (UTC)temp
C
wind
direction
speed
KPH
gust
KPH
rain 1hr
cm
rain 24hr
cm
rain mn
cm
humidity
%
barometer
mb
20260502203504 17 276 1.6 8.0 0.00 0.00 0.00 72 1012.5
20260502203004 16 224 0.0 8.0 0.00 0.00 0.00 72 1012.5
20260502202503 16 96 0.0 9.7 0.00 0.00 0.00 73 1012.5
20260502201504 16 148 1.6 9.7 0.00 0.00 0.00 73 1013.5
20260502201004 16 52 0.0 11.3 0.00 0.00 0.00 74 1013.5
20260502200004 15 51 0.0 11.3 0.00 0.00 0.00 75 1013.5
20260502195004 15 174 0.0 11.3 0.00 0.00 0.00 75 1013.5
20260502194503 15 90 1.6 11.3 0.00 0.00 0.00 75 1013.5
20260502194004 15 332 1.6 9.7 0.00 0.00 0.00 76 1013.5
20260502193007 15 35 0.0 9.7 0.00 0.00 0.00 77 1013.5
20260502192506 15 292 0.0 11.3 0.00 0.00 0.00 79 1013.5
20260502192008 14 126 3.2 11.3 0.00 0.00 0.00 79 1013.5
20260502191506 14 268 0.0 8.0 0.00 0.00 0.00 80 1014.5
20260502191006 14 196 0.0 4.8 0.00 0.00 0.00 81 1014.5
20260502190507 13 192 0.0 4.8 0.00 0.00 0.00 81 1014.5
20260502190007 13 137 0.0 3.2 0.00 0.00 0.00 81 1014.5
20260502185506 13 35 0.0 3.2 0.00 0.00 0.00 81 1014.5
20260502185007 13 7 0.0 3.2 0.00 0.00 0.00 82 1014.5
20260502184507 13 180 0.0 11.3 0.00 0.00 0.00 82 1013.5
20260502184007 13 305 3.2 11.3 0.00 0.00 0.00 82 1013.5
20260502183506 12 141 0.0 8.0 0.00 0.00 0.00 83 1013.5
20260502183008 12 66 0.0 0.0 0.00 0.00 0.00 83 1014.5
20260502182006 12 35 0.0 3.2 0.00 0.00 0.00 83 1014.5
20260502181507 12 305 0.0 0.0 0.00 0.00 0.00 83 1014.5
20260502181006 12 109 0.0 9.7 0.00 0.00 0.00 83 1014.5
20260502170507 11 332 0.0 8.0 0.00 0.00 0.00 85 1013.5
20260502164007 11 305 0.0 3.2 0.00 0.00 0.00 86 1014.5
20260502163006 10 207 0.0 0.0 0.00 0.00 0.00 86 1014.5
20260502162507 10 89 0.0 0.0 0.00 0.00 0.00 86 1014.5
20260502162008 10 45 0.0 0.0 0.00 0.00 0.00 86 1014.5
20260502161506 10 115 0.0 0.0 0.00 0.00 0.00 86 1014.5
20260502161006 10 219 0.0 0.0 0.00 0.00 0.00 86 1014.5
20260502160506 10 61 0.0 0.0 0.00 0.00 0.00 86 1014.5
20260502152006 10 51 0.0 0.0 0.00 0.00 0.00 85 1014.5
20260502151507 10 80 0.0 0.0 0.00 0.00 0.00 85 1014.5
20260502151006 10 102 0.0 0.0 0.00 0.00 0.00 85 1014.5
20260502150506 10 133 0.0 0.0 0.00 0.00 0.00 85 1014.5
20260502123506 9 58 0.0 0.0 0.00 0.00 0.00 86 1014.5
20260502123005 9 80 0.0 0.0 0.00 0.00 0.00 86 1014.5
20260502122506 9 80 0.0 0.0 0.00 0.00 0.00 86 1014.5
20260502122006 9 80 0.0 0.0 0.00 0.00 0.00 86 1014.5
20260502121006 9 77 0.0 0.0 0.00 0.00 0.00 86 1013.5
20260502120506 9 37 0.0 0.0 0.00 0.00 0.00 85 1013.5
20260502115505 9 215 0.0 0.0 0.00 0.00 0.00 85 1014.5
20260502114006 9 104 0.0 4.8 0.00 0.00 0.00 85 1014.5
20260502113506 9 246 0.0 8.0 0.00 0.00 0.00 85 1014.5
20260502113006 9 35 0.0 8.0 0.00 0.00 0.00 85 1014.5
20260502112506 9 260 0.0 12.9 0.00 0.00 0.00 85 1014.5
20260502112006 9 305 0.0 12.9 0.00 0.00 0.00 84 1014.5
20260502111505 9 78 0.0 0.0 0.00 0.00 0.00 84 1014.5
20260502111005 9 54 0.0 0.0 0.00 0.00 0.00 84 1014.5
20260502110506 9 305 0.0 0.0 0.00 0.00 0.00 84 1014.5
20260502105506 9 215 0.0 0.0 0.00 0.00 0.00 85 1013.5
20260502105006 9 170 0.0 0.0 0.00 0.00 0.00 84 1013.5
20260502104505 9 92 0.0 8.0 0.00 0.00 0.00 84 1013.5
20260502104005 9 111 0.0 8.0 0.00 0.00 0.00 84 1013.5
20260502103506 9 116 0.0 4.8 0.00 0.00 0.00 84 1013.5
20260502103005 9 195 0.0 4.8 0.00 0.00 0.00 85 1013.5
20260502102505 9 80 0.0 0.0 0.00 0.00 0.00 84 1013.5
20260502102006 9 109 0.0 4.8 0.00 0.00 0.00 83 1013.5
20260502101506 9 80 0.0 4.8 0.00 0.00 0.00 83 1013.5
20260502101006 9 126 0.0 0.0 0.00 0.00 0.00 83 1013.5
20260502091006 10 35 0.0 0.0 0.00 0.00 0.00 81 1016.5
20260502090506 10 271 0.0 0.0 0.00 0.00 0.00 80 1016.5
20260502071505 11 125 0.0 0.0 0.00 0.00 0.00 72 1015.5
20260502071005 11 80 0.0 0.0 0.00 0.00 0.00 72 1015.5
20260502070005 11 80 0.0 0.0 0.00 0.00 0.00 72 1015.5
20260502065505 11 192 0.0 0.0 0.00 0.00 0.00 72 1015.5
20260502065005 11 170 0.0 0.0 0.00 0.00 0.00 71 1015.5
20260502064005 11 125 0.0 0.0 0.00 0.00 0.00 71 1016.5
20260502063505 11 133 0.0 0.0 0.00 0.00 0.00 70 1016.5
20260502063005 11 58 0.0 8.0 0.00 0.00 0.00 70 1015.5
20260502062505 12 167 0.0 8.0 0.00 0.00 0.00 69 1015.5
20260502061505 12 89 0.0 0.0 0.00 0.00 0.00 69 1016.5
20260502060505 12 80 0.0 9.7 0.00 0.00 0.00 69 1016.5
20260502055506 12 58 0.0 0.0 0.00 0.00 0.00 69 1015.5
20260502055005 12 88 0.0 0.0 0.00 0.00 0.00 68 1015.5
20260502054005 13 282 0.0 0.0 0.00 0.00 0.00 67 1015.5
20260502053006 13 131 0.0 3.2 0.00 0.00 0.00 68 1015.5
20260502051505 13 73 0.0 0.0 0.00 0.00 0.00 67 1015.5
20260502051005 13 73 0.0 0.0 0.00 0.00 0.00 66 1015.5
20260502050504 14 54 0.0 0.0 0.00 0.00 0.00 65 1015.5
20260502045505 14 305 0.0 0.0 0.00 0.00 0.00 65 1014.5
20260502045005 15 299 0.0 0.0 0.00 0.00 0.00 64 1014.5
20260502044504 15 22 0.0 0.0 0.00 0.00 0.00 64 1014.5
20260502043005 15 305 0.0 0.0 0.00 0.00 0.00 63 1014.5
20260502042504 15 17 0.0 0.0 0.00 0.00 0.00 63 1014.5
20260502042005 16 84 0.0 0.0 0.00 0.00 0.00 63 1014.5
20260502041505 16 1 0.0 0.0 0.00 0.00 0.00 62 1014.5
20260502041005 16 78 0.0 0.0 0.00 0.00 0.00 61 1014.5
20260502040505 16 341 0.0 0.0 0.00 0.00 0.00 62 1014.5
20260502035505 16 15 0.0 0.0 0.00 0.00 0.00 61 1014.5
20260502035005 17 52 0.0 0.0 0.00 0.00 0.00 60 1014.5
20260502034504 17 323 0.0 0.0 0.00 0.00 0.00 60 1014.5
20260502034005 17 60 0.0 0.0 0.00 0.00 0.00 59 1014.5
20260502033504 17 310 0.0 0.0 0.00 0.00 0.00 59 1014.5
20260502033004 17 310 0.0 0.0 0.00 0.00 0.00 58 1014.5
20260502032004 18 35 0.0 0.0 0.00 0.00 0.00 57 1014.5
20260502031504 18 305 0.0 0.0 0.00 0.00 0.00 57 1014.5
20260502031005 18 192 0.0 0.0 0.00 0.00 0.00 57 1014.5
20260502030504 18 282 0.0 0.0 0.00 0.00 0.00 56 1014.5
20260502030005 18 305 0.0 0.0 0.00 0.00 0.00 55 1013.5
20260502025505 18 35 0.0 0.0 0.00 0.00 0.00 54 1013.5
20260502023504 19 238 0.0 0.0 0.00 0.00 0.00 53 1013.5
20260502023004 19 215 0.0 0.0 0.00 0.00 0.00 53 1013.5
20260502022504 20 74 0.0 0.0 0.00 0.00 0.00 53 1013.5
20260502021505 20 148 0.0 0.0 0.00 0.00 0.00 53 1013.5
20260502021005 20 58 0.0 0.0 0.00 0.00 0.00 52 1013.5
20260502020504 20 80 0.0 0.0 0.00 0.00 0.00 52 1013.5
20260502020005 20 129 0.0 0.0 0.00 0.00 0.00 52 1013.5
20260502015505 20 148 0.0 0.0 0.00 0.00 0.00 51 1013.5
20260502015005 20 80 0.0 3.2 0.00 0.00 0.00 51 1013.5
20260502014504 20 342 0.0 3.2 0.00 0.00 0.00 51 1013.5
20260502014004 21 63 0.0 0.0 0.00 0.00 0.00 51 1013.5
20260502013505 21 305 0.0 0.0 0.00 0.00 0.00 50 1013.5
20260502012504 21 211 0.0 8.0 0.00 0.00 0.00 50 1012.5
20260502012005 21 282 0.0 8.0 0.00 0.00 0.00 49 1012.5
20260502011504 21 310 0.0 0.0 0.00 0.00 0.00 49 1012.5
20260502011004 21 305 0.0 0.0 0.00 0.00 0.00 48 1012.5
20260502010504 21 305 0.0 0.0 0.00 0.00 0.00 48 1012.5
20260502010004 21 305 0.0 3.2 0.00 0.00 0.00 48 1013.5
20260502005504 21 249 0.0 3.2 0.00 0.00 0.00 47 1013.5
20260502005004 21 51 0.0 0.0 0.00 0.00 0.00 48 1013.5
20260502004504 21 35 0.0 0.0 0.00 0.00 0.00 48 1012.5
20260502004005 21 215 0.0 0.0 0.00 0.00 0.00 48 1012.5
20260502003504 21 247 0.0 0.0 0.00 0.00 0.00 49 1012.5
20260502002505 21 305 0.0 0.0 0.00 0.00 0.00 49 1012.5
20260502001504 21 170 0.0 0.0 0.00 0.00 0.00 50 1012.5
20260502001004 21 272 0.0 0.0 0.00 0.00 0.00 49 1012.5
20260502000504 21 305 0.0 0.0 0.00 0.00 0.00 49 1012.5
20260502000004 21 228 0.0 0.0 0.00 0.00 0.00 49 1012.5
20260501235004 21 234 0.0 0.0 0.00 0.00 0.00 49 1012.5
20260501234504 21 210 0.0 0.0 0.00 0.00 0.00 50 1012.5
20260501234004 22 317 0.0 0.0 0.00 0.00 0.00 49 1012.5
20260501233504 22 215 0.0 0.0 0.00 0.00 0.00 49 1012.5
20260501233004 21 226 0.0 11.3 0.00 0.00 0.00 50 1013.5
20260501232504 21 252 0.0 11.3 0.00 0.00 0.00 50 1013.5
20260501232004 21 160 3.2 11.3 0.00 0.00 0.00 50 1013.5
20260501231005 22 162 1.6 8.0 0.00 0.00 0.00 50 1013.5
20260501230504 22 214 1.6 8.0 0.00 0.00 0.00 51 1013.5
20260501230005 22 299 0.0 0.0 0.00 0.00 0.00 50 1013.5
20260501225004 22 168 0.0 3.2 0.00 0.00 0.00 51 1013.5
20260501224504 21 247 0.0 0.0 0.00 0.00 0.00 51 1014.5
20260501224004 21 176 0.0 0.0 0.00 0.00 0.00 52 1014.5
20260501223004 21 170 0.0 9.7 0.00 0.00 0.00 52 1014.5
20260501222504 21 104 1.6 9.7 0.00 0.00 0.00 52 1014.5
20260501222004 21 100 0.0 9.7 0.00 0.00 0.00 52 1014.5
20260501221504 21 147 0.0 12.9 0.00 0.00 0.00 52 1014.5
20260501220504 21 35 4.8 9.7 0.00 0.00 0.00 52 1014.5
20260501220004 21 146 0.0 8.0 0.00 0.00 0.00 52 1014.5
20260501215504 21 198 0.0 8.0 0.00 0.00 0.00 52 1014.5
20260501215004 21 170 0.0 8.0 0.00 0.00 0.00 53 1014.5
20260501214504 20 175 0.0 9.7 0.00 0.00 0.00 54 1014.5
20260501214004 20 121 0.0 12.9 0.00 0.00 0.00 54 1014.5
20260501213504 20 124 1.6 12.9 0.00 0.00 0.00 54 1014.5
20260501212503 20 164 0.0 12.9 0.00 0.00 0.00 54 1014.5
20260501212004 20 161 0.0 12.9 0.00 0.00 0.00 54 1014.5
20260501211504 20 147 1.6 9.7 0.00 0.00 0.00 55 1014.5
20260501211004 20 209 0.0 9.7 0.00 0.00 0.00 55 1014.5
20260501210503 20 170 1.6 12.9 0.00 0.00 0.00 55 1014.5
20260501210004 20 158 3.2 12.9 0.00 0.00 0.00 55 1014.5
20260501205504 20 142 3.2 12.9 0.00 0.00 0.00 55 1014.5
20260501205003 20 221 0.0 0.0 0.00 0.00 0.00 55 1014.5
20260501204004 20 282 1.6 11.3 0.00 0.00 0.00 56 1014.5